Location: Degersen
(52.2871°N, 9.5716°E)
Time: 00:58:19
(UTC+00:00)

Cosmos 1500 Rocket - Pass Details

Date: 20 January 2026
Orbit: 597 x 623 km, 82.5° (Epoch: 18 February)

Event Time Altitude Azimuth Distance (km) Brightness Sun altitude
Exits shadow 04:17:21 52° 51° (NE) 770 4.2 -27.2°
Drops below altitude 10° 04:20:58 10° 16° (NNE) 1,999 6.3 -26.7°
Sets 04:23:14 0° 14° (NNE) 2,913 7.2 -26.3°
